カタログに戻る

STARLINK-5928

運用中通信VLEO
NORAD 55958·PAYLOAD·🇺🇸 United States

打ち上げ Mar 17, 2023 から Vandenberg Space Force Base

Loading…

次のパス (今後24時間)

TLE

最新Source: CelesTrak SupGP

元期: Sep 15, 2026, 02:27 UTC

1 55958C 23037AW  26258.10256944  .00026832  00000+0  22488-2 0  2585
2 55958  70.0001 146.8898 0002753 270.7623 141.6166 14.98315533    18

AllMySatでSTARLINK-5928をリアルタイム追跡

Download on the App Store